Year,Month,Day,Hour,Minute,Value (Times are PST for temperature in C)
2010,01,18,00,00,8.70
2010,01,18,00,01,8.70
2010,01,18,00,02,8.70
2010,01,18,00,03,8.80
2010,01,18,00,04,8.80
2010,01,18,00,05,8.80
2010,01,18,00,06,8.80
2010,01,18,00,07,8.80
2010,01,18,00,08,8.80
2010,01,18,00,09,8.80
2010,01,18,00,10,8.90
2010,01,18,00,11,9.00
2010,01,18,00,12,9.00
2010,01,18,00,18,9.50
2010,01,18,00,19,9.50
2010,01,18,00,20,9.60
2010,01,18,00,21,9.60
2010,01,18,00,22,9.70
2010,01,18,00,23,9.70
2010,01,18,00,24,9.70
2010,01,18,00,25,9.70
2010,01,18,00,26,9.70
2010,01,18,00,27,9.80
2010,01,18,00,28,9.80
2010,01,18,00,29,9.80
2010,01,18,00,30,9.80
2010,01,18,00,31,9.80
2010,01,18,00,32,9.80
2010,01,18,00,33,9.80
2010,01,18,00,34,9.80
2010,01,18,00,35,9.80
2010,01,18,00,36,9.80
2010,01,18,00,37,9.80
2010,01,18,00,38,9.80
2010,01,18,00,39,9.80
2010,01,18,00,40,9.80
2010,01,18,00,41,9.80
2010,01,18,00,42,9.80
2010,01,18,00,43,9.80
2010,01,18,00,44,9.80
2010,01,18,00,45,9.80
2010,01,18,00,46,9.80
2010,01,18,00,47,9.80
2010,01,18,00,48,9.80
2010,01,18,00,49,9.80
2010,01,18,00,50,9.70
2010,01,18,00,51,9.70
2010,01,18,00,52,9.70
2010,01,18,00,53,9.70
2010,01,18,00,54,9.70
2010,01,18,00,55,9.70
2010,01,18,00,56,9.70
2010,01,18,00,57,9.70
2010,01,18,00,58,9.70
2010,01,18,00,59,9.70
2010,01,18,01,00,9.70
2010,01,18,01,01,9.70
2010,01,18,01,02,9.70
2010,01,18,01,03,9.70
2010,01,18,01,04,9.60
2010,01,18,01,05,9.60
2010,01,18,01,06,9.60
2010,01,18,01,07,9.60
2010,01,18,01,08,9.60
2010,01,18,01,09,9.60
2010,01,18,01,10,9.60
2010,01,18,01,11,9.60
2010,01,18,01,12,9.60
2010,01,18,01,13,9.60
2010,01,18,01,14,9.60
2010,01,18,01,15,9.60
2010,01,18,01,16,9.60
2010,01,18,01,17,9.60
2010,01,18,01,18,9.60
2010,01,18,01,19,9.50
2010,01,18,01,20,9.50
2010,01,18,01,21,9.50
2010,01,18,01,22,9.50
2010,01,18,01,23,9.50
2010,01,18,01,24,9.50
2010,01,18,01,25,9.50
2010,01,18,01,26,9.50
2010,01,18,01,27,9.40
2010,01,18,01,28,9.40
2010,01,18,01,29,9.40
2010,01,18,01,30,9.40
2010,01,18,01,31,9.40
2010,01,18,01,32,9.40
2010,01,18,01,33,9.40
2010,01,18,01,34,9.40
2010,01,18,01,35,9.40
2010,01,18,01,36,9.40
2010,01,18,01,37,9.40
2010,01,18,01,38,9.40
2010,01,18,01,39,9.40
2010,01,18,01,40,9.40
2010,01,18,01,41,9.40
2010,01,18,01,42,9.40
2010,01,18,01,43,9.40
2010,01,18,01,44,9.40
2010,01,18,01,45,9.40
2010,01,18,01,46,9.40
2010,01,18,01,47,9.40
2010,01,18,01,48,9.40
2010,01,18,01,49,9.40
2010,01,18,01,50,9.40
2010,01,18,01,51,9.40
2010,01,18,01,52,9.40
2010,01,18,01,53,9.40
2010,01,18,01,54,9.40
2010,01,18,01,55,9.40
2010,01,18,01,56,9.40
2010,01,18,01,57,9.40
2010,01,18,01,58,9.40
2010,01,18,01,59,9.40
2010,01,18,02,00,9.40
2010,01,18,02,01,9.40
2010,01,18,02,02,9.40
2010,01,18,02,03,9.40
2010,01,18,02,04,9.40
2010,01,18,02,05,9.40
2010,01,18,02,06,9.40
2010,01,18,02,07,9.40
2010,01,18,02,08,9.40
2010,01,18,02,09,9.40
2010,01,18,02,10,9.40
2010,01,18,02,11,9.30
2010,01,18,02,12,9.30
2010,01,18,02,13,9.30
2010,01,18,02,14,9.30
2010,01,18,02,15,9.30
2010,01,18,02,16,9.30
2010,01,18,02,17,9.30
2010,01,18,02,18,9.30
2010,01,18,02,19,9.30
2010,01,18,02,20,9.20
2010,01,18,02,21,9.20
2010,01,18,02,22,9.20
2010,01,18,02,23,9.20
2010,01,18,02,24,9.20
2010,01,18,02,25,9.20
2010,01,18,02,26,9.10
2010,01,18,02,27,9.10
2010,01,18,02,28,9.10
2010,01,18,02,29,9.10
2010,01,18,02,30,9.10
2010,01,18,02,31,9.00
2010,01,18,02,32,9.00
2010,01,18,02,33,9.00
2010,01,18,02,34,9.00
2010,01,18,02,35,8.90
2010,01,18,02,36,8.90
2010,01,18,06,17,7.10
2010,01,18,06,18,7.10
2010,01,18,06,20,7.10
2010,01,18,06,21,7.00
2010,01,18,06,22,7.00
2010,01,18,06,24,7.00
2010,01,18,06,25,7.00
2010,01,18,06,26,7.00
2010,01,18,06,27,7.00
2010,01,18,06,28,7.00
2010,01,18,06,29,7.00
2010,01,18,06,30,6.90
2010,01,18,06,31,7.00
2010,01,18,06,32,6.90
2010,01,18,06,33,6.90
2010,01,18,06,34,6.90
2010,01,18,06,35,6.90
2010,01,18,06,36,6.90
2010,01,18,06,37,6.90
2010,01,18,06,38,6.90
2010,01,18,06,39,6.90
2010,01,18,06,40,6.90
2010,01,18,06,41,6.90
2010,01,18,06,42,6.90
2010,01,18,06,43,6.90
2010,01,18,06,44,6.90
2010,01,18,06,45,6.90
2010,01,18,06,46,6.80
2010,01,18,06,47,6.80
2010,01,18,06,48,6.80
2010,01,18,06,49,6.80
2010,01,18,06,50,6.80
2010,01,18,06,51,6.80
2010,01,18,06,52,6.80
2010,01,18,06,53,6.80
2010,01,18,06,54,6.80
2010,01,18,06,55,6.80
2010,01,18,06,56,6.80
2010,01,18,06,57,6.80
2010,01,18,06,58,6.80
2010,01,18,06,59,6.80
2010,01,18,07,00,6.80
2010,01,18,07,01,6.80
2010,01,18,07,02,6.80
2010,01,18,07,03,6.80
2010,01,18,07,04,6.70
2010,01,18,07,05,6.70
2010,01,18,07,06,6.70
2010,01,18,07,07,6.70
2010,01,18,07,08,6.70
2010,01,18,07,09,6.70
2010,01,18,07,10,6.70
2010,01,18,07,11,6.70
2010,01,18,07,12,6.70
2010,01,18,07,13,6.60
2010,01,18,07,14,6.60
2010,01,18,07,15,6.60
2010,01,18,07,16,6.60
2010,01,18,07,17,6.60
2010,01,18,07,18,6.60
2010,01,18,07,19,6.50
2010,01,18,07,20,6.50
2010,01,18,07,21,6.50
2010,01,18,07,22,6.50
2010,01,18,07,23,6.50
2010,01,18,07,24,6.50
2010,01,18,07,25,6.50
2010,01,18,07,26,6.50
2010,01,18,07,27,6.50
2010,01,18,07,28,6.50
2010,01,18,07,29,6.50
2010,01,18,07,30,6.50
2010,01,18,07,31,6.50
2010,01,18,07,32,6.60
2010,01,18,07,33,6.60
2010,01,18,07,34,6.60
2010,01,18,07,35,6.60
2010,01,18,07,36,6.60
2010,01,18,07,37,6.60
2010,01,18,07,38,6.60
2010,01,18,07,39,6.60
2010,01,18,07,40,6.70
2010,01,18,07,41,6.70
2010,01,18,07,42,6.70
2010,01,18,07,43,6.60
2010,01,18,07,44,6.60
2010,01,18,07,45,6.60
2010,01,18,07,46,6.60
2010,01,18,07,47,6.70
2010,01,18,07,48,6.60
2010,01,18,07,49,6.60
2010,01,18,07,50,6.60
2010,01,18,07,51,6.60
2010,01,18,07,52,6.60
2010,01,18,07,53,6.60
2010,01,18,07,54,6.70
2010,01,18,07,55,6.70
2010,01,18,07,56,6.70
2010,01,18,07,57,6.70
2010,01,18,07,58,6.70
2010,01,18,07,59,6.70
2010,01,18,08,00,6.70
2010,01,18,08,01,6.80
2010,01,18,08,02,6.90
2010,01,18,08,03,6.90
2010,01,18,08,04,7.00
2010,01,18,08,05,7.00
2010,01,18,08,06,7.10
2010,01,18,08,07,7.20
2010,01,18,08,08,7.20
2010,01,18,08,09,7.20
2010,01,18,08,10,7.30
2010,01,18,08,11,7.30
2010,01,18,08,12,7.40
2010,01,18,08,13,7.40
2010,01,18,08,14,7.40
2010,01,18,08,15,7.50
2010,01,18,08,16,7.50
2010,01,18,08,17,7.60
2010,01,18,08,18,7.60
2010,01,18,08,19,7.70
2010,01,18,08,20,7.80
2010,01,18,08,21,7.90
2010,01,18,08,22,8.00
2010,01,18,08,23,8.10
2010,01,18,08,24,8.10
2010,01,18,08,25,8.20
2010,01,18,08,26,8.20
2010,01,18,08,27,8.30
2010,01,18,08,28,8.30
2010,01,18,08,29,8.30
2010,01,18,08,30,8.20
2010,01,18,08,31,8.20
2010,01,18,08,32,8.20
2010,01,18,08,33,8.20
2010,01,18,08,34,8.20
2010,01,18,08,35,8.20
2010,01,18,08,36,8.20
2010,01,18,08,37,8.30
2010,01,18,08,38,8.30
2010,01,18,08,39,8.30
2010,01,18,08,40,8.30
2010,01,18,08,41,8.20
2010,01,18,08,42,8.20
2010,01,18,08,43,8.20
2010,01,18,08,44,8.20
2010,01,18,08,45,8.20
2010,01,18,08,46,8.10
2010,01,18,08,47,8.10
2010,01,18,08,48,8.10
2010,01,18,08,49,8.10
2010,01,18,08,50,8.10
2010,01,18,08,51,8.10
2010,01,18,08,52,8.10
2010,01,18,08,53,8.20
2010,01,18,08,54,8.20
2010,01,18,08,55,8.20
2010,01,18,08,56,8.20
2010,01,18,08,57,8.20
2010,01,18,08,58,8.30
2010,01,18,08,59,8.30
2010,01,18,09,00,8.30
2010,01,18,09,01,8.30
2010,01,18,09,02,8.30
2010,01,18,09,03,8.30
2010,01,18,09,04,8.30
2010,01,18,09,05,8.30
2010,01,18,09,06,8.30
2010,01,18,09,07,8.30
2010,01,18,09,08,8.30
2010,01,18,09,09,8.40
2010,01,18,09,10,8.40
2010,01,18,09,11,8.40
2010,01,18,09,12,8.50
2010,01,18,09,13,8.50
2010,01,18,09,14,8.60
2010,01,18,09,15,8.60
2010,01,18,09,16,8.60
2010,01,18,09,17,8.60
2010,01,18,09,18,8.60
2010,01,18,09,19,8.60
2010,01,18,09,20,8.60
2010,01,18,09,21,8.60
2010,01,18,09,22,8.60
2010,01,18,09,23,8.70
2010,01,18,09,24,8.70
2010,01,18,09,25,8.70
2010,01,18,09,26,8.80
2010,01,18,09,27,8.80
2010,01,18,09,28,8.80
2010,01,18,09,29,8.90
2010,01,18,09,30,8.90
2010,01,18,09,31,8.90
2010,01,18,09,32,9.00
2010,01,18,09,33,9.00
2010,01,18,09,34,9.00
2010,01,18,09,35,9.10
2010,01,18,09,36,9.10
2010,01,18,09,37,9.10
2010,01,18,09,38,9.10
2010,01,18,09,39,9.10
2010,01,18,09,40,9.10
2010,01,18,09,41,9.00
2010,01,18,09,42,9.00
2010,01,18,09,43,9.00
2010,01,18,09,44,9.00
2010,01,18,09,45,9.00
2010,01,18,09,46,9.00
2010,01,18,09,47,9.00
2010,01,18,09,48,8.90
2010,01,18,09,49,8.90
2010,01,18,09,50,8.90
2010,01,18,09,51,8.90
2010,01,18,09,52,8.90
2010,01,18,09,53,8.80
2010,01,18,09,54,8.80
2010,01,18,09,55,8.80
2010,01,18,09,56,8.80
2010,01,18,09,57,8.80
2010,01,18,09,58,8.80
2010,01,18,09,59,8.70
2010,01,18,10,00,8.70
2010,01,18,10,01,8.70
2010,01,18,10,02,8.60
2010,01,18,10,03,8.60
2010,01,18,10,04,8.70
2010,01,18,10,05,8.70
2010,01,18,10,06,8.70
2010,01,18,10,07,8.70
2010,01,18,10,08,8.70
2010,01,18,10,09,8.70
2010,01,18,10,10,8.70
2010,01,18,10,11,8.70
2010,01,18,10,12,8.80
2010,01,18,10,13,8.70
2010,01,18,10,14,8.70
2010,01,18,10,15,8.70
2010,01,18,10,16,8.70
2010,01,18,10,17,8.70
2010,01,18,10,18,8.80
2010,01,18,10,19,8.80
2010,01,18,10,20,8.70
2010,01,18,10,21,8.70
2010,01,18,10,22,8.70
2010,01,18,10,23,8.70
2010,01,18,10,24,8.80
2010,01,18,10,25,8.80
2010,01,18,10,26,8.70
2010,01,18,10,27,8.70
2010,01,18,10,28,8.70
2010,01,18,10,29,8.70
2010,01,18,10,30,8.70
2010,01,18,10,31,8.70
2010,01,18,10,32,8.70
2010,01,18,10,33,8.70
2010,01,18,10,34,8.70
2010,01,18,10,35,8.70
2010,01,18,10,36,8.70
2010,01,18,10,37,8.80
2010,01,18,10,38,8.80
2010,01,18,10,39,8.80
2010,01,18,10,40,8.80
2010,01,18,10,41,8.80
2010,01,18,10,42,8.80
2010,01,18,10,43,8.80
2010,01,18,10,44,8.80
2010,01,18,10,45,8.80
2010,01,18,10,46,8.80
2010,01,18,10,47,8.70
2010,01,18,10,48,8.70
2010,01,18,10,49,8.70
2010,01,18,10,50,8.70
2010,01,18,10,51,8.70
2010,01,18,10,52,8.70
2010,01,18,10,53,8.70
2010,01,18,10,54,8.70
2010,01,18,10,55,8.70
2010,01,18,10,56,8.70
2010,01,18,10,57,8.60
2010,01,18,10,58,8.60
2010,01,18,10,59,8.60
2010,01,18,11,00,8.60
2010,01,18,11,01,8.60
2010,01,18,11,02,8.60
2010,01,18,11,03,8.60
2010,01,18,11,04,8.60
2010,01,18,11,05,8.60
2010,01,18,11,06,8.60
2010,01,18,11,07,8.60
2010,01,18,11,08,8.60
2010,01,18,11,09,8.70
2010,01,18,11,10,8.70
2010,01,18,11,11,8.70
2010,01,18,11,12,8.70
2010,01,18,11,13,8.80
2010,01,18,11,14,8.80
2010,01,18,11,15,8.80
2010,01,18,11,16,8.80
2010,01,18,11,17,8.90
2010,01,18,11,18,8.90
2010,01,18,11,19,8.90
2010,01,18,11,20,8.90
2010,01,18,11,21,8.90
2010,01,18,11,22,8.90
2010,01,18,11,23,8.90
2010,01,18,11,24,8.90
2010,01,18,11,25,9.00
2010,01,18,11,26,9.00
2010,01,18,11,27,9.00
2010,01,18,11,28,9.10
2010,01,18,11,29,9.10
2010,01,18,11,30,9.10
2010,01,18,11,31,9.10
2010,01,18,11,32,9.10
2010,01,18,11,33,9.00
2010,01,18,11,34,9.00
2010,01,18,11,35,9.00
2010,01,18,11,36,9.00
2010,01,18,11,37,9.00
2010,01,18,11,38,8.90
2010,01,18,11,39,9.00
2010,01,18,11,40,9.00
2010,01,18,11,41,9.00
2010,01,18,11,42,9.00
2010,01,18,11,43,9.00
2010,01,18,11,44,9.00
2010,01,18,11,45,9.10
2010,01,18,11,46,9.10
2010,01,18,11,47,9.10
2010,01,18,11,48,9.20
2010,01,18,11,49,9.20
2010,01,18,11,50,9.30
2010,01,18,11,51,9.30
2010,01,18,11,52,9.40
2010,01,18,11,53,9.50
2010,01,18,11,54,9.60
2010,01,18,11,55,9.60
2010,01,18,11,56,9.70
2010,01,18,11,57,9.70
2010,01,18,11,58,9.80
2010,01,18,11,59,9.80
2010,01,18,12,00,9.90
2010,01,18,12,01,10.00
2010,01,18,12,02,10.00
2010,01,18,12,03,10.10
2010,01,18,12,04,10.20
2010,01,18,12,05,10.20
2010,01,18,12,06,10.20
2010,01,18,12,07,10.20
2010,01,18,12,08,10.20
2010,01,18,12,09,10.20
2010,01,18,12,10,10.30
2010,01,18,12,11,10.30
2010,01,18,12,12,10.30
2010,01,18,12,13,10.40
2010,01,18,12,14,10.50
2010,01,18,12,15,10.50
2010,01,18,12,16,10.50
2010,01,18,12,17,10.50
2010,01,18,12,18,10.40
2010,01,18,12,19,10.40
2010,01,18,12,20,10.40
2010,01,18,12,21,10.40
2010,01,18,12,22,10.40
2010,01,18,12,23,10.40
2010,01,18,12,24,10.40
2010,01,18,12,25,10.40
2010,01,18,12,26,10.50
2010,01,18,12,27,10.50
2010,01,18,12,28,10.60
2010,01,18,12,29,10.60
2010,01,18,12,30,10.60
2010,01,18,12,31,10.70
2010,01,18,12,32,10.70
2010,01,18,12,33,10.60
2010,01,18,12,34,10.60
2010,01,18,12,35,10.60
2010,01,18,12,36,10.60
2010,01,18,12,37,10.60
2010,01,18,12,38,10.60
2010,01,18,12,39,10.70
2010,01,18,12,40,10.70
2010,01,18,12,41,10.70
2010,01,18,12,42,10.70
2010,01,18,12,43,10.80
2010,01,18,12,44,10.80
2010,01,18,12,45,10.80
2010,01,18,12,46,10.80
2010,01,18,12,47,10.90
2010,01,18,12,48,10.90
2010,01,18,12,49,11.00
2010,01,18,12,50,11.00
2010,01,18,12,51,11.00
2010,01,18,12,52,11.10
2010,01,18,12,53,11.10
2010,01,18,12,54,11.10
2010,01,18,12,55,11.10
2010,01,18,12,56,11.10
2010,01,18,12,57,11.10
2010,01,18,12,58,11.10
2010,01,18,12,59,11.10
2010,01,18,13,00,11.10
2010,01,18,13,01,11.00
2010,01,18,13,02,10.90
2010,01,18,13,03,10.90
2010,01,18,13,04,11.00
2010,01,18,13,05,11.00
2010,01,18,13,06,11.10
2010,01,18,13,07,11.10
2010,01,18,13,08,11.10
2010,01,18,13,09,11.10
2010,01,18,13,10,11.10
2010,01,18,13,11,11.10
2010,01,18,13,12,11.10
2010,01,18,13,13,11.10
2010,01,18,13,14,11.10
2010,01,18,13,15,11.10
2010,01,18,13,16,11.20
2010,01,18,13,17,11.20
2010,01,18,13,18,11.20
2010,01,18,13,19,11.10
2010,01,18,13,20,11.10
2010,01,18,13,21,11.10
2010,01,18,13,22,11.10
2010,01,18,13,23,11.10
2010,01,18,13,24,11.10
2010,01,18,13,25,11.00
2010,01,18,13,26,11.00
2010,01,18,13,27,10.90
2010,01,18,13,28,10.90
2010,01,18,13,29,10.90
2010,01,18,13,30,10.90
2010,01,18,13,31,10.90
2010,01,18,13,32,10.80
2010,01,18,13,33,10.80
2010,01,18,13,34,10.80
2010,01,18,13,35,10.70
2010,01,18,13,36,10.70
2010,01,18,13,37,10.70
2010,01,18,13,38,10.70
2010,01,18,13,39,10.60
2010,01,18,13,40,10.60
2010,01,18,13,41,10.50
2010,01,18,13,42,10.50
2010,01,18,13,43,10.40
2010,01,18,13,44,10.40
2010,01,18,13,45,10.40
2010,01,18,13,46,10.40
2010,01,18,13,47,10.40
2010,01,18,13,48,10.40
2010,01,18,13,49,10.40
2010,01,18,13,50,10.40
2010,01,18,13,51,10.30
2010,01,18,13,52,10.30
2010,01,18,13,53,10.30
2010,01,18,13,54,10.30
2010,01,18,13,55,10.30
2010,01,18,13,56,10.20
2010,01,18,13,57,10.20
2010,01,18,13,58,10.20
2010,01,18,13,59,10.10
2010,01,18,14,00,10.10
2010,01,18,14,01,10.10
2010,01,18,14,02,10.10
2010,01,18,14,03,10.20
2010,01,18,14,04,10.20
2010,01,18,14,05,10.20
2010,01,18,14,06,10.10
2010,01,18,14,07,10.20
2010,01,18,14,08,10.20
2010,01,18,14,09,10.20
2010,01,18,14,10,10.20
2010,01,18,14,11,10.20
2010,01,18,14,12,10.20
2010,01,18,14,13,10.20
2010,01,18,14,14,10.20
2010,01,18,14,15,10.20
2010,01,18,14,16,10.20
2010,01,18,14,17,10.20
2010,01,18,14,18,10.10
2010,01,18,14,19,10.10
2010,01,18,14,20,10.10
2010,01,18,14,21,10.10
2010,01,18,14,22,10.10
2010,01,18,14,23,10.10
2010,01,18,14,24,10.10
2010,01,18,14,25,10.10
2010,01,18,14,26,10.10
2010,01,18,14,27,10.10
2010,01,18,14,28,10.10
2010,01,18,14,29,10.10
2010,01,18,14,30,10.10
2010,01,18,14,31,10.10
2010,01,18,14,32,10.10
2010,01,18,14,33,10.10
2010,01,18,14,34,10.10
2010,01,18,14,35,10.10
2010,01,18,14,36,10.20
2010,01,18,14,37,10.20
2010,01,18,14,38,10.30
2010,01,18,14,39,10.30
2010,01,18,14,40,10.40
2010,01,18,14,41,10.40
2010,01,18,14,42,10.40
2010,01,18,14,43,10.50
2010,01,18,14,44,10.50
2010,01,18,14,45,10.50
2010,01,18,14,46,10.40
2010,01,18,14,47,10.40
2010,01,18,14,48,10.40
2010,01,18,14,49,10.40
2010,01,18,14,50,10.30
2010,01,18,14,51,10.30
2010,01,18,14,52,10.20
2010,01,18,14,53,10.20
2010,01,18,14,54,10.10
2010,01,18,14,55,10.10
2010,01,18,14,56,10.00
2010,01,18,14,57,10.00
2010,01,18,14,58,10.00
2010,01,18,14,59,9.90
2010,01,18,15,00,9.80
2010,01,18,15,01,9.80
2010,01,18,15,02,9.90
2010,01,18,15,03,9.90
2010,01,18,15,04,9.90
2010,01,18,15,05,9.80
2010,01,18,15,06,9.80
2010,01,18,15,07,9.80
2010,01,18,15,08,9.80
2010,01,18,15,09,9.80
2010,01,18,15,10,9.80
2010,01,18,15,11,9.80
2010,01,18,15,12,9.80
2010,01,18,15,13,9.80
2010,01,18,15,14,9.80
2010,01,18,15,15,9.80
2010,01,18,15,16,9.80
2010,01,18,15,17,9.80
2010,01,18,15,18,9.80
2010,01,18,15,19,9.80
2010,01,18,15,20,9.80
2010,01,18,15,21,9.80
2010,01,18,15,22,9.80
2010,01,18,15,23,9.80
2010,01,18,15,24,9.80
2010,01,18,15,25,9.70
2010,01,18,15,26,9.70
2010,01,18,15,27,9.70
2010,01,18,15,28,9.70
2010,01,18,15,29,9.70
2010,01,18,15,30,9.70
2010,01,18,15,31,9.70
2010,01,18,15,32,9.70
2010,01,18,15,33,9.70
2010,01,18,15,34,9.60
2010,01,18,15,35,9.60
2010,01,18,15,36,9.60
2010,01,18,15,37,9.60
2010,01,18,15,38,9.60
2010,01,18,15,39,9.60
2010,01,18,15,40,9.60
2010,01,18,15,41,9.60
2010,01,18,15,42,9.60
2010,01,18,15,43,9.60
2010,01,18,15,44,9.60
2010,01,18,15,45,9.60
2010,01,18,15,46,9.60
2010,01,18,15,47,9.60
2010,01,18,15,48,9.60
2010,01,18,15,49,9.50
2010,01,18,15,50,9.50
2010,01,18,15,51,9.50
2010,01,18,15,52,9.40
2010,01,18,15,53,9.40
2010,01,18,15,54,9.40
2010,01,18,15,55,9.30
2010,01,18,15,56,9.30
2010,01,18,15,57,9.20
2010,01,18,15,58,9.10
2010,01,18,15,59,9.10
2010,01,18,16,00,9.10
2010,01,18,16,01,9.10
2010,01,18,16,02,9.00
2010,01,18,16,03,9.00
2010,01,18,16,04,9.00
2010,01,18,16,05,9.00
2010,01,18,16,06,8.90
2010,01,18,16,07,8.90
2010,01,18,16,08,8.90
2010,01,18,16,09,8.90
2010,01,18,16,10,8.90
2010,01,18,16,11,8.90
2010,01,18,16,12,8.90
2010,01,18,16,13,8.80
2010,01,18,16,14,8.80
2010,01,18,16,15,8.80
2010,01,18,16,16,8.70
2010,01,18,16,17,8.70
2010,01,18,16,18,8.60
2010,01,18,16,19,8.50
2010,01,18,16,20,8.50
2010,01,18,16,21,8.40
2010,01,18,16,22,8.40
2010,01,18,16,23,8.30
2010,01,18,16,24,8.30
2010,01,18,16,25,8.20
2010,01,18,16,26,8.20
2010,01,18,16,27,8.10
2010,01,18,16,28,8.00
2010,01,18,16,29,8.00
2010,01,18,16,30,7.80
2010,01,18,16,31,7.80
2010,01,18,16,32,7.80
2010,01,18,16,33,7.70
2010,01,18,16,34,7.70
2010,01,18,16,35,7.60
2010,01,18,16,36,7.60
2010,01,18,16,37,7.50
2010,01,18,16,38,7.50
2010,01,18,16,39,7.40
2010,01,18,16,40,7.40
2010,01,18,16,41,7.30
2010,01,18,16,42,7.30
2010,01,18,16,43,7.20
2010,01,18,16,44,7.20
2010,01,18,16,45,7.20
2010,01,18,16,46,7.10
2010,01,18,16,47,7.10
2010,01,18,16,48,7.00
2010,01,18,16,49,7.00
2010,01,18,16,50,7.00
2010,01,18,16,51,6.90
2010,01,18,16,52,6.90
2010,01,18,16,53,6.80
2010,01,18,16,54,6.80
2010,01,18,16,55,6.80
2010,01,18,16,56,6.70
2010,01,18,16,57,6.70
2010,01,18,16,58,6.70
2010,01,18,16,59,6.70
2010,01,18,17,00,6.70
2010,01,18,17,01,6.70
2010,01,18,17,02,6.70
2010,01,18,17,03,6.70
2010,01,18,17,04,6.70
2010,01,18,17,05,6.80
2010,01,18,17,06,6.80
2010,01,18,17,07,6.90
2010,01,18,17,08,6.90
2010,01,18,17,09,6.90
2010,01,18,17,10,6.90
2010,01,18,17,11,6.90
2010,01,18,17,12,6.90
2010,01,18,17,13,6.90
2010,01,18,17,14,7.00
2010,01,18,17,15,7.00
2010,01,18,17,16,7.10
2010,01,18,17,17,7.10
2010,01,18,17,18,7.20
2010,01,18,17,19,7.20
2010,01,18,17,20,7.20
2010,01,18,17,21,7.20
2010,01,18,17,22,7.20
2010,01,18,17,23,7.20
2010,01,18,17,24,7.30
2010,01,18,17,25,7.30
2010,01,18,17,26,7.30
2010,01,18,17,27,7.30
2010,01,18,17,28,7.40
2010,01,18,17,29,7.40
2010,01,18,17,30,7.40
2010,01,18,17,31,7.40
2010,01,18,17,32,7.50
2010,01,18,17,33,7.60
2010,01,18,17,34,7.60
2010,01,18,17,35,7.60
2010,01,18,17,36,7.60
2010,01,18,17,37,7.60
2010,01,18,17,38,7.60
2010,01,18,17,39,7.70
2010,01,18,17,40,7.70
2010,01,18,17,41,7.70
2010,01,18,17,42,7.70
2010,01,18,17,43,7.70
2010,01,18,17,44,7.80
2010,01,18,17,45,7.80
2010,01,18,17,46,7.80
2010,01,18,17,47,7.80
2010,01,18,17,48,7.80
2010,01,18,17,49,7.80
2010,01,18,17,50,7.80
2010,01,18,17,51,7.80
2010,01,18,17,52,7.80
2010,01,18,17,53,7.80
2010,01,18,17,54,7.80
2010,01,18,17,55,7.80
2010,01,18,17,56,7.80
2010,01,18,17,57,7.80
2010,01,18,17,58,7.80
2010,01,18,17,59,7.80
2010,01,18,18,00,7.80
2010,01,18,18,01,7.90
2010,01,18,18,02,7.90
2010,01,18,18,03,7.90
2010,01,18,18,04,7.90
2010,01,18,18,05,7.90
2010,01,18,18,06,7.90
2010,01,18,18,07,7.90
2010,01,18,18,08,7.90
2010,01,18,18,09,7.90
2010,01,18,18,10,7.90
2010,01,18,18,11,7.90
2010,01,18,18,12,7.90
2010,01,18,18,13,7.90
2010,01,18,18,14,7.90
2010,01,18,18,15,7.90
2010,01,18,18,16,7.90
2010,01,18,18,17,7.90
2010,01,18,18,18,7.90
2010,01,18,18,19,7.90
2010,01,18,18,20,7.90
2010,01,18,18,21,7.90
2010,01,18,18,22,7.90
2010,01,18,18,23,7.90
2010,01,18,18,24,7.90
2010,01,18,18,25,7.90
2010,01,18,18,26,7.90
2010,01,18,18,27,7.90
2010,01,18,18,28,7.90
2010,01,18,18,29,7.90
2010,01,18,18,30,7.90
2010,01,18,18,31,7.90
2010,01,18,18,32,7.90
2010,01,18,18,33,7.90
2010,01,18,18,34,7.90
2010,01,18,18,35,7.90
2010,01,18,18,36,7.90
2010,01,18,18,37,7.90
2010,01,18,18,38,7.80
2010,01,18,18,39,7.80
2010,01,18,18,40,7.80
2010,01,18,18,41,7.70
2010,01,18,18,42,7.70
2010,01,18,18,43,7.60
2010,01,18,18,44,7.50
2010,01,18,18,45,7.50
2010,01,18,18,46,7.40
2010,01,18,18,47,7.40
2010,01,18,18,48,7.40
2010,01,18,18,49,7.50
2010,01,18,18,50,7.50
2010,01,18,18,51,7.60
2010,01,18,18,52,7.70
2010,01,18,18,53,7.70
2010,01,18,18,54,7.80
2010,01,18,18,55,7.80
2010,01,18,18,56,7.80
2010,01,18,18,57,7.90
2010,01,18,18,58,7.90
2010,01,18,18,59,7.90
2010,01,18,19,00,7.90
2010,01,18,19,01,7.90
2010,01,18,19,02,7.90
2010,01,18,19,03,8.00
2010,01,18,19,04,8.00
2010,01,18,19,05,8.00
2010,01,18,19,06,8.00
2010,01,18,19,07,8.00
2010,01,18,19,08,8.00
2010,01,18,19,09,8.00
2010,01,18,19,10,8.10
2010,01,18,19,11,8.00
2010,01,18,19,12,8.00
2010,01,18,19,13,8.00
2010,01,18,19,14,8.00
2010,01,18,19,15,7.90
2010,01,18,19,16,7.90
2010,01,18,19,17,7.80
2010,01,18,19,18,7.80
2010,01,18,19,19,7.70
2010,01,18,19,20,7.70
2010,01,18,19,21,7.60
2010,01,18,19,22,7.60
2010,01,18,19,23,7.50
2010,01,18,19,24,7.40
2010,01,18,19,25,7.40
2010,01,18,19,26,7.30
2010,01,18,19,27,7.30
2010,01,18,19,28,7.30
2010,01,18,19,29,7.30
2010,01,18,19,30,7.30
2010,01,18,19,31,7.30
2010,01,18,19,32,7.30
2010,01,18,19,33,7.30
2010,01,18,19,34,7.30
2010,01,18,19,35,7.30
2010,01,18,19,36,7.30
2010,01,18,19,37,7.30
2010,01,18,19,38,7.30
2010,01,18,19,39,7.30
2010,01,18,19,40,7.30
2010,01,18,19,41,7.40
2010,01,18,19,42,7.40
2010,01,18,19,43,7.40
2010,01,18,19,44,7.40
2010,01,18,19,45,7.40
2010,01,18,19,46,7.40
2010,01,18,19,47,7.40
2010,01,18,19,48,7.40
2010,01,18,19,49,7.40
2010,01,18,19,50,7.40
2010,01,18,19,51,7.30
2010,01,18,19,52,7.30
2010,01,18,19,53,7.30
2010,01,18,19,54,7.30
2010,01,18,19,55,7.20
2010,01,18,19,56,7.20
2010,01,18,19,57,7.20
2010,01,18,19,58,7.10
2010,01,18,19,59,7.10
2010,01,18,20,00,7.00
2010,01,18,20,01,7.00
2010,01,18,20,02,7.00
2010,01,18,20,03,7.00
2010,01,18,20,04,7.00
2010,01,18,20,05,7.00
2010,01,18,20,06,7.10
2010,01,18,20,07,7.20
2010,01,18,20,08,7.20
2010,01,18,20,09,7.40
2010,01,18,20,10,7.50
2010,01,18,20,11,7.50
2010,01,18,20,12,7.60
2010,01,18,20,13,7.70
2010,01,18,20,14,7.70
2010,01,18,20,15,7.80
2010,01,18,20,16,7.80
2010,01,18,20,17,7.80
2010,01,18,20,18,7.70
2010,01,18,20,19,7.70
2010,01,18,20,20,7.70
2010,01,18,20,21,7.70
2010,01,18,20,22,7.70
2010,01,18,20,23,7.60
2010,01,18,20,24,7.50
2010,01,18,20,25,7.50
2010,01,18,20,26,7.40
2010,01,18,20,27,7.40
2010,01,18,20,28,7.40
2010,01,18,20,29,7.40
2010,01,18,20,30,7.40
2010,01,18,20,31,7.40
2010,01,18,20,32,7.40
2010,01,18,20,33,7.40
2010,01,18,20,34,7.50
2010,01,18,20,35,7.50
2010,01,18,20,36,7.60
2010,01,18,20,37,7.70
2010,01,18,20,38,7.60
2010,01,18,20,39,7.70
2010,01,18,20,40,7.70
2010,01,18,20,41,7.70
2010,01,18,20,42,7.70
2010,01,18,20,43,7.70
2010,01,18,20,44,7.80
2010,01,18,20,45,7.80
2010,01,18,20,46,7.90
2010,01,18,20,47,7.90
2010,01,18,20,48,7.90
2010,01,18,20,49,7.90
2010,01,18,20,50,7.90
2010,01,18,20,51,7.90
2010,01,18,20,52,7.90
2010,01,18,20,53,7.90
2010,01,18,20,54,7.90
2010,01,18,20,55,7.90
2010,01,18,20,56,7.90
2010,01,18,20,57,7.90
2010,01,18,20,58,7.90
2010,01,18,20,59,8.00
2010,01,18,21,00,7.90
2010,01,18,21,01,7.90
2010,01,18,21,02,7.90
2010,01,18,21,03,7.90
2010,01,18,21,04,7.90
2010,01,18,21,05,7.90
2010,01,18,21,06,7.90
2010,01,18,21,07,7.90
2010,01,18,21,08,7.80
2010,01,18,21,09,7.80
2010,01,18,21,10,7.80
2010,01,18,21,11,7.70
2010,01,18,21,12,7.70
2010,01,18,21,13,7.60
2010,01,18,21,14,7.50
2010,01,18,21,15,7.50
2010,01,18,21,16,7.50
2010,01,18,21,17,7.50
2010,01,18,21,18,7.60
2010,01,18,21,19,7.60
2010,01,18,21,20,7.60
2010,01,18,21,21,7.60
2010,01,18,21,22,7.60
2010,01,18,21,23,7.60
2010,01,18,21,24,7.60
2010,01,18,21,25,7.50
2010,01,18,21,26,7.50
2010,01,18,21,27,7.40
2010,01,18,21,28,7.40
2010,01,18,21,29,7.40
2010,01,18,21,30,7.40
2010,01,18,21,31,7.40
2010,01,18,21,32,7.50
2010,01,18,21,33,7.50
2010,01,18,21,34,7.60
2010,01,18,21,35,7.60
2010,01,18,21,36,7.70
2010,01,18,21,37,7.70
2010,01,18,21,38,7.80
2010,01,18,21,39,7.80
2010,01,18,21,40,7.70
2010,01,18,21,41,7.70
2010,01,18,21,42,7.80
2010,01,18,21,43,7.80
2010,01,18,21,44,7.80
2010,01,18,21,45,7.80